Hourly Weather Ceske Budejovice

Today, 19 June, Saturday

Time Temperature Precipitation Wind Pressure Humidity
00:00 +20°C° 0 mm 1 mps 727 mmHg 79%
01:00 +20°C° 0 mm 1 mps 727 mmHg 78%
02:00 +20°C° 0 mm 1 mps 727 mmHg 79%
03:00 +19°C° 0 mm 1 mps 727 mmHg 80%
04:00 +19°C° 0 mm 1 mps 727 mmHg 81%
05:00 +21°C° 0 mm 1 mps 727 mmHg 77%
06:00 +21°C° 0 mm 0 mps 727 mmHg 72%
07:00 +22°C° 0 mm 0 mps 727 mmHg 67%
08:00 +26°C° 0 mm 1 mps 727 mmHg 62%
09:00 +28°C° 0 mm 1 mps 727 mmHg 57%
10:00 +29°C° 0 mm 1 mps 727 mmHg 51%
11:00 +30°C° 0 mm 1 mps 727 mmHg 48%
12:00 +31°C° 0 mm 2 mps 727 mmHg 44%
13:00 +32°C° 0 mm 2 mps 727 mmHg 40%
14:00 +32°C° 0 mm 2 mps 727 mmHg 40%
15:00 +32°C° 0 mm 2 mps 727 mmHg 40%
16:00 +32°C° 0 mm 2 mps 726 mmHg 40%
17:00 +30°C° 0 mm 2 mps 726 mmHg 51%
18:00 +28°C° 0 mm 2 mps 726 mmHg 62%
19:00 +26°C° 0 mm 2 mps 725 mmHg 72%
20:00 +25°C° 0 mm 1 mps 726 mmHg 76%
21:00 +23°C° 0 mm 1 mps 726 mmHg 79%
22:00 +22°C° 0 mm 1 mps 726 mmHg 82%
23:00 +21°C° 0.1 mm 1 mps 726 mmHg 85%

Tomorrow, 20 June, Sunday

Time Temperature Precipitation Wind Pressure Humidity
00:00 +21°C° 0.1 mm 1 mps 726 mmHg 87%
01:00 +20°C° 0.1 mm 1 mps 726 mmHg 89%
02:00 +18°C° 0 mm 0 mps 725 mmHg 90%
03:00 +18°C° 0 mm 0 mps 725 mmHg 91%
04:00 +17°C° 0 mm 0 mps 725 mmHg 91%
05:00 +19°C° 0 mm 0 mps 725 mmHg 86%
06:00 +23°C° 0 mm 1 mps 725 mmHg 80%
07:00 +24°C° 0 mm 1 mps 725 mmHg 75%
08:00 +26°C° 0 mm 1 mps 725 mmHg 66%
09:00 +28°C° 0 mm 1 mps 725 mmHg 58%
10:00 +30°C° 0 mm 2 mps 725 mmHg 49%
11:00 +31°C° 0 mm 2 mps 724 mmHg 45%
12:00 +32°C° 0 mm 2 mps 724 mmHg 42%
13:00 +34°C° 0 mm 2 mps 724 mmHg 38%
14:00 +34°C° 0 mm 2 mps 724 mmHg 39%
15:00 +34°C° 0 mm 3 mps 723 mmHg 40%
16:00 +34°C° 0 mm 3 mps 723 mmHg 41%
17:00 +31°C° 0 mm 3 mps 722 mmHg 50%
18:00 +29°C° 0 mm 3 mps 722 mmHg 58%
19:00 +27°C° 0 mm 3 mps 721 mmHg 67%
20:00 +26°C° 0 mm 3 mps 721 mmHg 70%
21:00 +25°C° 0 mm 3 mps 721 mmHg 74%
22:00 +24°C° 0 mm 3 mps 721 mmHg 77%
23:00 +22°C° 0.1 mm 3 mps 721 mmHg 81%

Day after tomorrow, 21 June, Monday

Time Temperature Precipitation Wind Pressure Humidity
00:00 +21°C° 0.1 mm 3 mps 720 mmHg 85%
01:00 +20°C° 0.1 mm 3 mps 720 mmHg 89%
02:00 +19°C° 0.1 mm 2 mps 720 mmHg 91%
03:00 +18°C° 0.1 mm 2 mps 720 mmHg 94%
04:00 +18°C° 0.1 mm 1 mps 720 mmHg 96%
05:00 +20°C° 0 mm 1 mps 721 mmHg 92%
06:00 +20°C° 0 mm 2 mps 721 mmHg 88%
07:00 +21°C° 0 mm 2 mps 721 mmHg 84%
08:00 +24°C° 0 mm 2 mps 722 mmHg 75%
09:00 +25°C° 0 mm 3 mps 722 mmHg 66%
10:00 +27°C° 0 mm 3 mps 722 mmHg 57%
11:00 +28°C° 0 mm 3 mps 722 mmHg 54%
12:00 +29°C° 0 mm 3 mps 722 mmHg 50%
13:00 +30°C° 0 mm 3 mps 722 mmHg 47%
14:00 +30°C° 0 mm 3 mps 722 mmHg 47%
15:00 +30°C° 0 mm 3 mps 722 mmHg 47%
16:00 +30°C° 0 mm 3 mps 721 mmHg 47%
17:00 +29°C° 0 mm 2 mps 722 mmHg 55%
18:00 +27°C° 0 mm 2 mps 722 mmHg 63%
19:00 +26°C° 0 mm 1 mps 722 mmHg 72%
20:00 +24°C° 0.2 mm 1 mps 722 mmHg 76%
21:00 +23°C° 0.2 mm 1 mps 722 mmHg 80%
22:00 +21°C° 0.2 mm 1 mps 722 mmHg 84%
23:00 +21°C° 0 mm 1 mps 723 mmHg 87%

22 June, Tuesday

Time Temperature Precipitation Wind Pressure Humidity
00:00 +20°C° 0 mm 1 mps 723 mmHg 89%
01:00 +20°C° 0 mm 1 mps 723 mmHg 91%
02:00 +20°C° 0 mm 1 mps 723 mmHg 92%
03:00 +19°C° 0 mm 1 mps 723 mmHg 93%
04:00 +19°C° 0 mm 1 mps 723 mmHg 94%
05:00 +20°C° 0 mm 1 mps 723 mmHg 90%
06:00 +22°C° 0 mm 1 mps 723 mmHg 85%
07:00 +23°C° 0 mm 1 mps 724 mmHg 80%
08:00 +25°C° 0 mm 1 mps 724 mmHg 73%
09:00 +26°C° 0 mm 2 mps 724 mmHg 65%
10:00 +28°C° 0 mm 2 mps 724 mmHg 58%
11:00 +28°C° 0.2 mm 2 mps 724 mmHg 58%
12:00 +29°C° 0.2 mm 2 mps 724 mmHg 57%
13:00 +29°C° 0.2 mm 3 mps 724 mmHg 57%
14:00 +29°C° 0.2 mm 2 mps 724 mmHg 59%
15:00 +29°C° 0.2 mm 2 mps 724 mmHg 61%
16:00 +29°C° 0.2 mm 2 mps 724 mmHg 63%
17:00 +28°C° 0.1 mm 2 mps 724 mmHg 67%
18:00 +27°C° 0.1 mm 2 mps 724 mmHg 72%
19:00 +26°C° 0.1 mm 2 mps 724 mmHg 76%
20:00 +25°C° 0.7 mm 2 mps 724 mmHg 81%
21:00 +23°C° 0.7 mm 2 mps 724 mmHg 86%
22:00 +22°C° 0.7 mm 1 mps 724 mmHg 92%
23:00 +21°C° 0.7 mm 1 mps 724 mmHg 93%

23 June, Wednesday

Time Temperature Precipitation Wind Pressure Humidity
00:00 +21°C° 0.7 mm 1 mps 725 mmHg 94%
01:00 +20°C° 0.7 mm 1 mps 725 mmHg 95%
02:00 +20°C° 1.1 mm 1 mps 725 mmHg 96%
03:00 +20°C° 1.1 mm 1 mps 725 mmHg 96%
04:00 +19°C° 1.1 mm 1 mps 725 mmHg 97%
05:00 +20°C° 0.1 mm 1 mps 726 mmHg 95%
06:00 +20°C° 0.1 mm 2 mps 726 mmHg 93%
07:00 +21°C° 0.1 mm 2 mps 726 mmHg 90%
08:00 +23°C° 0 mm 2 mps 726 mmHg 83%
09:00 +24°C° 0 mm 2 mps 726 mmHg 76%
10:00 +25°C° 0 mm 1 mps 726 mmHg 69%
11:00 +27°C° 0 mm 2 mps 726 mmHg 64%
12:00 +28°C° 0 mm 2 mps 726 mmHg 59%
13:00 +29°C° 0 mm 2 mps 726 mmHg 53%
14:00 +29°C° 0 mm 2 mps 726 mmHg 54%
15:00 +29°C° 0 mm 3 mps 726 mmHg 54%
16:00 +29°C° 0 mm 4 mps 725 mmHg 55%
17:00 +28°C° 0.4 mm 4 mps 725 mmHg 64%
18:00 +26°C° 0.4 mm 4 mps 724 mmHg 73%
19:00 +25°C° 0.4 mm 4 mps 724 mmHg 81%
20:00 +22°C° 5.6 mm 4 mps 724 mmHg 86%
21:00 +21°C° 5.6 mm 4 mps 725 mmHg 91%
22:00 +19°C° 5.6 mm 4 mps 725 mmHg 96%
23:00 +19°C° 0.6 mm 3 mps 725 mmHg 96%

24 June, Thursday

Time Temperature Precipitation Wind Pressure Humidity
00:00 +18°C° 0.6 mm 3 mps 726 mmHg 97%
01:00 +18°C° 0.6 mm 2 mps 726 mmHg 97%
02:00 +17°C° 0.4 mm 2 mps 726 mmHg 97%
03:00 +17°C° 0.4 mm 2 mps 727 mmHg 96%
04:00 +17°C° 0.4 mm 2 mps 727 mmHg 96%
05:00 +18°C° 0 mm 2 mps 727 mmHg 93%
06:00 +18°C° 0 mm 3 mps 727 mmHg 90%
07:00 +19°C° 0 mm 4 mps 728 mmHg 87%
08:00 +21°C° 0 mm 4 mps 728 mmHg 77%
09:00 +22°C° 0 mm 4 mps 728 mmHg 67%
10:00 +25°C° 0 mm 4 mps 728 mmHg 58%
11:00 +26°C° 0 mm 3 mps 728 mmHg 54%
12:00 +27°C° 0 mm 3 mps 728 mmHg 50%
13:00 +28°C° 0 mm 2 mps 728 mmHg 47%
14:00 +28°C° 0 mm 2 mps 728 mmHg 47%
15:00 +28°C° 0 mm 2 mps 728 mmHg 47%
16:00 +28°C° 0 mm 2 mps 728 mmHg 47%
17:00 +27°C° 0 mm 1 mps 728 mmHg 55%
18:00 +25°C° 0 mm 1 mps 728 mmHg 64%
19:00 +24°C° 0 mm 1 mps 727 mmHg 72%
20:00 +23°C° 0.1 mm 1 mps 728 mmHg 74%
21:00 +22°C° 0.1 mm 1 mps 728 mmHg 77%
22:00 +21°C° 0.1 mm 1 mps 728 mmHg 80%
23:00 +20°C° 0.1 mm 1 mps 728 mmHg 83%
Show more

We Need Your Consent

Meteoprog and our Service Providers may store and access personal data such as cookies, device identifiers or other similar technologies on your device and process such data to personalise content and ads, as well as provide social media features and to analyse the traffic.

  • Store and/or access information on your device

    Cookies, device identifiers or other information can be stored or accessed on your device for the purposes indicated above.

  • Personalised ads and content, ad and content measurement, audience insights, and products development

    Ads and content can be personalised based on a profile. More data can be added to better personalise ads and content. Ad and content performance can be measured. Insights about the audience who saw the ads and content can be derived. Such data can be used to develop or improve user’s experience, systems and software.

By clicking ‘I Agree’ you will allow the use of indicated cookies, device identifiers, web beacons or other similar technologies. Your settings can be changed in the browser on your device.

For certain purposes, legitimate interests may be relied on, rather than consent. You can read more about this in our Privacy and Cookie Policy.